COSMOS 292

导读

**COSMOS 292**是苏联(CIS)于1969年8月13日发射的军用卫星,隶属于苏联“宇宙”(COSMOS)卫星系列,在冷战太空对抗背景下执行航天任务。作为苏联早期空间技术发展的产物,这类卫星多承担侦察、技术试验等战略任务,推动了苏联空间军事能力与航天技术的进步,在冷战太空博弈中留下了印记。

Basic Information
目录编号:
4070
目录名称:
COSMOS 292
国际标识:
1969-070A
轨道中心:
EARTH
卫星名称:
COSMOS 292
卫星全名:
--
卫星状态:
在轨 (已飞行20851 天)
发射日期:
1969-08-13 UTC
国别 :
俄罗斯(独联体) (CIS)
星等 :
--
This satellite is enrolled in the Space Conjunction Data Service (SCDS) and the current flight risk assessment level is: No High Risk
Orbit Information
数据来源 国际轨道数据 AOE轨道数据
星历时间 2026-09-14T07:07:50+0800
5小时前
查看轨道信息
2026-09-10T00:00:00+0800
4天前
查看轨道信息
半长轴 7085.905km 7085.915km
偏心率 0.0008646 0.0008571
轨道倾角 74.048° 74.050°
近地点辐角 69.961° 78.994°
升交点赤经 137.148° 145.283°
平近点角 290.248° 94.605°
近地点 701.641km 701.704km
远地点 713.895km 713.852km
周期 98.936分钟 98.936分钟
每日圈数 14.554919 14.554888
Detailed Information
使用方式:
暂无
2D Orbit Map
3D Orbit Map
Orbit Altitude Analysis Chart
Orbit Inclination Analysis Chart
Orbit Comprehensive Analysis Chart
View Comprehensive Chart
Conjunction Data List
Event ID Objects TCA Miss Dist (km) Collision Risk Probability Collision Risk Index (CRI) Action
CDM_260916-005100-407005-451222
2026-09-16T
00:51:45+0000
2.324 km
极远距离
2.031372E-6 低风险 0.41
Miss Distance Evolution Trend with All Objects Subscribe to Flight Safety Assessment
Collision Probability Evolution Trend with All Objects Subscribe to Flight Safety Assessment